If you wish to contribute or participate in the discussions about articles you are invited to join SKYbrary as a registered user

 Actions

Alpnach Air Base

From SKYbrary Wiki

LSMA
Airport
ICAO: LSMA
Summary
Name Alpnach Air Base
Region Europe
Territory Switzerland CH.gif
Location Alpnach, Obwalden
Serving Alpnach
Elevation 445.008 m
1,460 ft
1,460 ft445.008 m
Type medium airport
Coordinates 46° 56' 38.00" N, 8° 17' 3.00" E
Runways
Designator Length Width Surface ROPS
1/19 1500 m4,921.26 ft
40 m131.234 ft
ASP /


METAR
Observation LSMA 250850Z 06007KT 7000 FEW030 BKN035 BKN041 09/04 Q1022 RMK WHT
Station ALPNACH
Date/Time 25 March 2019 08:50:00
Wind direction 60°
Wind speed 07 kts
Lowest cloud amount few clouds
Temperature 9°C
Dew point 4°C
Humidity 70%
QNH 1022 hPa
Weather condition n/a

Maps

Terrain

Loading map...

Airport Layout

Loading map...


Accidents & Serious Incidents at or in vicinity of LSMA

None on SKYbrary